Emu Arrow — C6OR4 — position and weather

sailwx.info

Track history (hours):
 
Tides and Currents Weather Stations Pressure Air Temp Water Temp Dewpoint Dewpoint Depression Visibility Wind Speed Wind Dir Waves Ship Positions

Emu Arrow

Last reported at 2014-Aug-01 01:33 UTC. Time now 2014-Aug-02 04:31 UTC.
Position N 36°01' E 120°22'.

Length 200 m; draft 9.4 m.

Type: Cargo ship. MMSI: 309805000.

Date/timePositionNaut miles runAvg speedWind from/ knotsBaromVisibWave heightAir tempDewpointWater temp
2014-Aug-01 01:33N 36°01' E 120°22'1312.7
2014-Aug-01 00:33N 35°58' E 120°37'33910.8
2014-Jul-30 17:11N 30°48' E 123°18'42011.4
2014-Jul-29 04:19N 24°43' E 119°23'811.1
2014-Jul-29 03:33N 24°39' E 119°15'1211.7
2014-Jul-29 02:33N 24°32' E 119°05'1211.8
2014-Jul-29 01:33N 24°25' E 118°54'2411.8
2014-Jul-28 23:33N 24°15' E 118°30'1110.3
2014-Jul-28 22:31N 24°14' E 118°19'1212.1
2014-Jul-28 21:33N 24°21' E 118°09'10 9.6
2014-Jul-28 20:33N 24°30' E 118°04'0 0.1
2014-Jul-28 19:33N 24°30' E 118°04'0 0.0
2014-Jul-28 18:24N 24°30' E 118°04'0 0.0
2014-Jul-28 17:33N 24°30' E 118°04'0 0.0
2014-Jul-28 16:33N 24°30' E 118°04'0 0.0
2014-Jul-28 15:33N 24°30' E 118°04'0 0.0
2014-Jul-28 14:33N 24°30' E 118°04'0 0.0
2014-Jul-28 13:33N 24°30' E 118°04'0 0.0
2014-Jul-28 12:33N 24°30' E 118°04'0 0.0
2014-Jul-28 11:33N 24°30' E 118°04'0 0.0
2014-Jul-28 10:33N 24°30' E 118°04'0 0.0
2014-Jul-28 09:33N 24°30' E 118°04'0 0.0
2014-Jul-28 08:24N 24°30' E 118°04'0 0.0
2014-Jul-28 07:33N 24°30' E 118°04'0 0.0
2014-Jul-28 06:33N 24°30' E 118°04'1 1.0
2014-Jul-28 05:33N 24°29' E 118°04'8 8.0
2014-Jul-28 04:33N 24°22' E 118°08'8 8.0
2014-Jul-28 03:33N 24°16' E 118°15'6 5.6
2014-Jul-28 02:26N 24°15' E 118°21'0 0.1
2014-Jul-28 01:32N 24°15' E 118°21'0 0.1
2014-Jul-28 00:32N 24°15' E 118°21'0 0.0
2014-Jul-27 23:32N 24°15' E 118°21'0 0.1
2014-Jul-27 22:32N 24°15' E 118°21'0 0.1
2014-Jul-27 21:32N 24°15' E 118°21'0 0.1
2014-Jul-27 20:32N 24°15' E 118°21'0 0.1
2014-Jul-27 19:26N 24°15' E 118°21'0 0.1
2014-Jul-27 18:32N 24°15' E 118°21'0 0.0
2014-Jul-27 17:32N 24°15' E 118°21'0 0.2
2014-Jul-27 16:26N 24°15' E 118°21'0 0.0
2014-Jul-27 15:32N 24°16' E 118°21'2 1.9
2014-Jul-27 14:33N 24°14' E 118°22'8 8.1
2014-Jul-27 13:33N 24°07' E 118°26'1211.9
2014-Jul-27 12:33N 23°55' E 118°22'10 9.4
2014-Jul-27 11:33N 23°49' E 118°14'2 2.3
2014-Jul-27 10:33N 23°48' E 118°13'2 1.8
2014-Jul-27 09:33N 23°46' E 118°11'1 1.2
2014-Jul-27 08:33N 23°45' E 118°10'1 0.6
2014-Jul-27 07:33N 23°45' E 118°10'0 0.3
2014-Jul-27 06:33N 23°45' E 118°10'6 5.9
2014-Jul-27 05:33N 23°43' E 118°04'1111.1
2014-Jul-27 04:33N 23°36' E 117°54'1312.5
2014-Jul-27 03:33N 23°26' E 117°47'4210.4
2014-Jul-26 23:33N 23°00' E 117°12'1211.7
2014-Jul-26 22:32N 22°54' E 117°00'1311.2
2014-Jul-26 21:24N 22°48' E 116°48'153 4.2
2014-Jul-25 08:33N 22°15' E 114°06'0 0.0
2014-Jul-25 07:33N 22°15' E 114°06'0 0.0
2014-Jul-25 06:33N 22°15' E 114°06'0 0.1
2014-Jul-25 05:33N 22°16' E 114°06'0 0.1
2014-Jul-25 04:33N 22°16' E 114°06'0 0.0
2014-Jul-25 02:27N 22°16' E 114°06'42 1.9
2014-Jul-24 04:27N 21°45' E 113°35'1112.7
2014-Jul-24 03:34N 21°46' E 113°22'1010.2
2014-Jul-24 02:33N 21°51' E 113°13'5 4.8
2014-Jul-24 01:30N 21°56' E 113°14'0 0.0
2014-Jul-24 00:30N 21°56' E 113°14'0 0.1
2014-Jul-23 23:30N 21°56' E 113°14'0 0.1
2014-Jul-23 22:30N 21°56' E 113°14'0 0.0
2014-Jul-23 21:30N 21°56' E 113°14'0 0.0
2014-Jul-23 20:30N 21°56' E 113°14'0 0.0
2014-Jul-23 19:24N 21°56' E 113°14'0 0.0
2014-Jul-23 18:30N 21°56' E 113°14'0 0.0
2014-Jul-23 17:30N 21°56' E 113°14'0 0.0
2014-Jul-23 16:30N 21°56' E 113°14'0 0.0
2014-Jul-23 15:24N 21°56' E 113°14'0 0.0
2014-Jul-23 14:24N 21°56' E 113°14'0 0.0
2014-Jul-23 13:18N 21°56' E 113°14'0 0.0
2014-Jul-23 11:24N 21°56' E 113°14'0 0.1
2014-Jul-23 10:24N 21°56' E 113°14'0 0.1
2014-Jul-23 09:30N 21°56' E 113°14'0 0.0
2014-Jul-23 08:18N 21°56' E 113°14'0 0.0
2014-Jul-23 07:30N 21°56' E 113°14'0 0.0
2014-Jul-23 06:30N 21°56' E 113°14'0 0.0
2014-Jul-23 05:24N 21°56' E 113°14'0 0.0
2014-Jul-23 04:30N 21°56' E 113°14'0 0.0
2014-Jul-23 03:18N 21°56' E 113°14'0 0.0
2014-Jul-23 02:24N 21°56' E 113°14'0 0.0
2014-Jul-23 01:30N 21°56' E 113°14'0 0.0
2014-Jul-23 00:30N 21°56' E 113°14'0 0.0
2014-Jul-22 23:30N 21°56' E 113°14'3 3.7
2014-Jul-22 22:33N 21°53' E 113°13'6 6.1
2014-Jul-22 21:33N 21°47' E 113°14'7 6.1
2014-Jul-22 20:29N 21°41' E 113°17'24 4.9
2014-Jul-22 15:33N 21°17' E 113°19'1410.2
2014-Jul-22 14:09N 21°03' E 113°17'  
Track history (hours):
 
Tides and Currents Weather Stations Pressure Air Temp Water Temp Dewpoint Dewpoint Depression Visibility Wind Speed Wind Dir Waves Ship Positions

Emu Arrow

Last reported at 2014-Aug-01 01:33 UTC. Time now 2014-Aug-02 04:31 UTC.
Position N 36°01' E 120°22'.

Length 200 m; draft 9.4 m.

Type: Cargo ship. MMSI: 309805000.

Date/timePositionNaut miles runAvg speedWind from/ knotsBaromVisibWave heightAir tempDewpointWater temp
2014-Aug-01 01:33N 36°01' E 120°22'1312.7
2014-Aug-01 00:33N 35°58' E 120°37'33910.8
2014-Jul-30 17:11N 30°48' E 123°18'42011.4
2014-Jul-29 04:19N 24°43' E 119°23'811.1
2014-Jul-29 03:33N 24°39' E 119°15'1211.7
2014-Jul-29 02:33N 24°32' E 119°05'1211.8
2014-Jul-29 01:33N 24°25' E 118°54'2411.8
2014-Jul-28 23:33N 24°15' E 118°30'1110.3
2014-Jul-28 22:31N 24°14' E 118°19'1212.1
2014-Jul-28 21:33N 24°21' E 118°09'10 9.6
2014-Jul-28 20:33N 24°30' E 118°04'0 0.1
2014-Jul-28 19:33N 24°30' E 118°04'0 0.0
2014-Jul-28 18:24N 24°30' E 118°04'0 0.0
2014-Jul-28 17:33N 24°30' E 118°04'0 0.0
2014-Jul-28 16:33N 24°30' E 118°04'0 0.0
2014-Jul-28 15:33N 24°30' E 118°04'0 0.0
2014-Jul-28 14:33N 24°30' E 118°04'0 0.0
2014-Jul-28 13:33N 24°30' E 118°04'0 0.0
2014-Jul-28 12:33N 24°30' E 118°04'0 0.0
2014-Jul-28 11:33N 24°30' E 118°04'0 0.0
2014-Jul-28 10:33N 24°30' E 118°04'0 0.0
2014-Jul-28 09:33N 24°30' E 118°04'0 0.0
2014-Jul-28 08:24N 24°30' E 118°04'0 0.0
2014-Jul-28 07:33N 24°30' E 118°04'0 0.0
2014-Jul-28 06:33N 24°30' E 118°04'1 1.0
2014-Jul-28 05:33N 24°29' E 118°04'8 8.0
2014-Jul-28 04:33N 24°22' E 118°08'8 8.0
2014-Jul-28 03:33N 24°16' E 118°15'6 5.6
2014-Jul-28 02:26N 24°15' E 118°21'0 0.1
2014-Jul-28 01:32N 24°15' E 118°21'0 0.1
2014-Jul-28 00:32N 24°15' E 118°21'0 0.0
2014-Jul-27 23:32N 24°15' E 118°21'0 0.1
2014-Jul-27 22:32N 24°15' E 118°21'0 0.1
2014-Jul-27 21:32N 24°15' E 118°21'0 0.1
2014-Jul-27 20:32N 24°15' E 118°21'0 0.1
2014-Jul-27 19:26N 24°15' E 118°21'0 0.1
2014-Jul-27 18:32N 24°15' E 118°21'0 0.0
2014-Jul-27 17:32N 24°15' E 118°21'0 0.2
2014-Jul-27 16:26N 24°15' E 118°21'0 0.0
2014-Jul-27 15:32N 24°16' E 118°21'2 1.9
2014-Jul-27 14:33N 24°14' E 118°22'8 8.1
2014-Jul-27 13:33N 24°07' E 118°26'1211.9
2014-Jul-27 12:33N 23°55' E 118°22'10 9.4
2014-Jul-27 11:33N 23°49' E 118°14'2 2.3
2014-Jul-27 10:33N 23°48' E 118°13'2 1.8
2014-Jul-27 09:33N 23°46' E 118°11'1 1.2
2014-Jul-27 08:33N 23°45' E 118°10'1 0.6
2014-Jul-27 07:33N 23°45' E 118°10'0 0.3
2014-Jul-27 06:33N 23°45' E 118°10'6 5.9
2014-Jul-27 05:33N 23°43' E 118°04'1111.1
2014-Jul-27 04:33N 23°36' E 117°54'1312.5
2014-Jul-27 03:33N 23°26' E 117°47'4210.4
2014-Jul-26 23:33N 23°00' E 117°12'1211.7
2014-Jul-26 22:32N 22°54' E 117°00'1311.2
2014-Jul-26 21:24N 22°48' E 116°48'153 4.2
2014-Jul-25 08:33N 22°15' E 114°06'0 0.0
2014-Jul-25 07:33N 22°15' E 114°06'0 0.0
2014-Jul-25 06:33N 22°15' E 114°06'0 0.1
2014-Jul-25 05:33N 22°16' E 114°06'0 0.1
2014-Jul-25 04:33N 22°16' E 114°06'0 0.0
2014-Jul-25 02:27N 22°16' E 114°06'42 1.9
2014-Jul-24 04:27N 21°45' E 113°35'1112.7
2014-Jul-24 03:34N 21°46' E 113°22'1010.2
2014-Jul-24 02:33N 21°51' E 113°13'5 4.8
2014-Jul-24 01:30N 21°56' E 113°14'0 0.0
2014-Jul-24 00:30N 21°56' E 113°14'0 0.1
2014-Jul-23 23:30N 21°56' E 113°14'0 0.1
2014-Jul-23 22:30N 21°56' E 113°14'0 0.0
2014-Jul-23 21:30N 21°56' E 113°14'0 0.0
2014-Jul-23 20:30N 21°56' E 113°14'0 0.0
2014-Jul-23 19:24N 21°56' E 113°14'0 0.0
2014-Jul-23 18:30N 21°56' E 113°14'0 0.0
2014-Jul-23 17:30N 21°56' E 113°14'0 0.0
2014-Jul-23 16:30N 21°56' E 113°14'0 0.0
2014-Jul-23 15:24N 21°56' E 113°14'0 0.0
2014-Jul-23 14:24N 21°56' E 113°14'0 0.0
2014-Jul-23 13:18N 21°56' E 113°14'0 0.0
2014-Jul-23 11:24N 21°56' E 113°14'0 0.1
2014-Jul-23 10:24N 21°56' E 113°14'0 0.1
2014-Jul-23 09:30N 21°56' E 113°14'0 0.0
2014-Jul-23 08:18N 21°56' E 113°14'0 0.0
2014-Jul-23 07:30N 21°56' E 113°14'0 0.0
2014-Jul-23 06:30N 21°56' E 113°14'0 0.0
2014-Jul-23 05:24N 21°56' E 113°14'0 0.0
2014-Jul-23 04:30N 21°56' E 113°14'0 0.0
2014-Jul-23 03:18N 21°56' E 113°14'0 0.0
2014-Jul-23 02:24N 21°56' E 113°14'0 0.0
2014-Jul-23 01:30N 21°56' E 113°14'0 0.0
2014-Jul-23 00:30N 21°56' E 113°14'0 0.0
2014-Jul-22 23:30N 21°56' E 113°14'3 3.7
2014-Jul-22 22:33N 21°53' E 113°13'6 6.1
2014-Jul-22 21:33N 21°47' E 113°14'7 6.1
2014-Jul-22 20:29N 21°41' E 113°17'24 4.9
2014-Jul-22 15:33N 21°17' E 113°19'1410.2
2014-Jul-22 14:09N 21°03' E 113°17'  

Dump ship's entire track history